www.pogodaiklimat.ru

Погода и климат >> Архив погоды >> Мозамбик >> Иньямбане


ПОГОДА в Иньямбане

  • Прогноз погоды в Иньямбане
  • Монитор погоды в Иньямбане

АРХИВ ПОГОДЫ в Иньямбане

Время (UTC), дата Ветер
(напр.,м/с)
 
Видим.   Явления Облачность Т
(С)
Тd
(С)
f
(%)
Тe
(С)
Тes
(С)
Комфортность P
(гПа)
Po
(гПа)
Тmin
(С)
Tmax
(С)
R
(мм)
R24
(мм)
S
(см)
18 12.06 штиль 0 30 км 3/3 600 м
[Cu hum]
+22.5 +18.5 78 +28 +28 душно 1020.9 1019.1 +26.8
21 12.06 штиль 0 30 км 8/8 600 м
[Cu med, cong]
+22.2 +19.1 83 +28 +28 душно 1021.9 1020.1
00 13.06 30 км н/о +21.2 +18.3 84 +25 +25 комфорт 1021.4 1019.6
03 13.06 С 3 30 км 1/1 600 м
[Cu hum]
+20.5 +18.9 91 +25 +25 комфорт 1021.0 1019.2
06 13.06 С 1 30 км ясно +21.5 +18.8 85 +26 +29 душно 1022.0 1020.2 +19.4
09 13.06 штиль 0 30 км ясно +26.4 +17.9 60 +31 +44 душно 1023.8 1022.0
12 13.06 С 2 30 км 1/1 600 м
[Cu hum]
+27.5 +20.7 66 +34 +40 очень
душно
1023.1 1021.4
15 13.06 Ю 5 30 км 1/1 600 м
[Cu med, cong]
+24.2 +18.0 68 +28 +28 душно 1022.5 1020.7
18 13.06 Ю 6 15 км в посл. час дождь 8/8 600 м
[Cu Sc]
+23.0 +18.9 78 +29 +29 очень
душно
1025.4 1023.6 +28.3 0.2
21 13.06 Ю 5 8000 м слаб. дождь 8/8 300 м
[Cu med, cong]
+21.6 +18.4 82 +26 +26 душно 1026.7 1024.9
00 14.06 ЮЗ 6 10 км в посл. час дождь 6/6 600 м
[Cu Sc]
+20.6 +17.9 85 +24 +24 комфорт 1026.0 1024.2 5
03 14.06 Ю 5 30 км 6/6 600 м
[Cu med, cong]
+21.6 +15.0 66 +25 +25 комфорт 1026.5 1024.7
06 14.06 Ю 4 30 км 6/6 600 м
[Cu Sc]
+22.5 +17.5 73 +27 +28 душно 1027.2 1025.4 +19.8 5
09 14.06 ЮВ 7 10 км слаб. морось 8/8 300 м
[Cu med, cong]
+21.2 +15.2 69 +24 +25 комфорт 1028.8 1027.0
12 14.06 Ю 7 30 км {морось} 8/8 600 м
[Cu med, cong]
+23.4 +12.6 51 +26 +27 жарко 1028.0 1026.2 0.4
15 14.06 Ю 6 30 км 4/4 600 м
[Cu med, cong]
+21.6 +11.1 51 +23 +23 комфорт 1026.8 1025.0
18 14.06 Ю 4 30 км 5/5 600 м
[Cu Sc]
+20.0 +12.6 62 +22 +22 комфорт 1027.5 1025.7 +23.8 0.4
21 14.06 Ю 3 30 км 9/9 600 м
[Cu Sc]
+19.5 +12.2 63 +21 +21 комфорт 1027.8 1026.0
00 15.06 Ю 3 15 км в посл. час морось 8/8 600 м
[Cu med, cong]
+18.5 +16.0 85 +20 +20 1026.6 1024.8 0.1
03 15.06 штиль 0 30 км 3/3 600 м
[Cu hum]
+18.0 +14.5 80 +18 +18 1025.7 1023.9
06 15.06 штиль 0 30 км 5/5 600 м
[Cu med, cong]
+19.5 +15.8 79 +21 +23 комфорт 1026.0 1024.2 +17.5 0.5
09 15.06 Ю 3 30 км {морось} 8/8 600 м
[Cu med, cong]
+22.0 +17.3 75 +26 +28 душно 1027.7 1025.9
12 15.06 ЮВ 4 20 км в посл. час дождь {морось} 9/9 300 м
[Cu med, cong]
+21.5 +17.5 78 +26 +26 душно 1025.6 1023.8 2
15 15.06 ЮВ 2 30 км 8/8 600 м
[Cu med, cong]
+22.2 +17.7 76 +27 +27 душно 1024.5 1022.7
18 15.06 штиль 0 30 км 8/8 600 м
[Cu med, cong]
+21.3 +17.9 81 +25 +25 комфорт 1025.1 1023.3 +23.3 2
21 15.06 штиль 0 30 км 6/6 600 м
[Cu med, cong]
+20.8 +18.8 88 +25 +25 комфорт 1025.7 1023.9
00 16.06 штиль 0 9000 м слаб. дождь {морось} 10/10 300 м
[Cu med, cong]
+19.3 +17.7 90 +21 +21 комфорт 1024.0 1022.2 2
03 16.06 штиль 0 20 км {морось} 9/9 600 м
[Cu med, cong]
+19.5 +17.0 85 +21 +21 комфорт 1024.0 1022.2
06 16.06 ЮВ 2 30 км {дождь, морось} 8/8 600 м
[Cu med, cong]
+20.2 +17.6 85 +24 +24 комфорт 1025.4 1023.6 +19.0 5
09 16.06 ЮВ 2 8000 м слаб. морось 9/9 300 м
[Cu med, cong]
+21.8 +19.9 89 +27 +28 душно 1026.9 1025.1
12 16.06 ЮВ 3 20 км {морось} 9/9 300 м
[Cu med, cong]
+23.0 +18.6 76 +29 +29 очень
душно
1015.7 1013.9 1
15 16.06 штиль 0 30 км 8/8 600 м
[Cu med, cong]
+22.8 +16.1 66 +27 +27 душно 1024.9 1023.1
18 16.06 штиль 0 30 км 8/8 600 м
[Cu med, cong]
+22.3 +13.3 57 +25 +25 комфорт 1026.1 1024.3 +23.2 1
21 16.06 штиль 0 30 км 9/9 600 м
[Cu med, cong]
+21.8 +15.3 67 +25 +25 комфорт 1027.0 1025.2
00 17.06 штиль 0 30 км 9/9 600 м
[Cu med, cong]
+21.2 +12.8 59 +23 +23 комфорт 1026.7 1024.9
03 17.06 штиль 0 30 км 6/6 600 м
[Cu med, cong]
+20.2 +13.0 63 +22 +22 комфорт 1026.1 1024.3
06 17.06 штиль 0 30 км 8/8 600 м
[Sc]
+21.3 +15.6 70 +25 +25 комфорт 1026.9 1025.1 +19.9 1
09 17.06 ЮВ 3 30 км 6/6 600 м
[Cu Sc]
+24.9 +13.5 49 +27 +30 жарко 1028.6 1026.8
12 17.06 ЮВ 2 30 км 6/6 600 м
[Cu med, cong]
+24.7 +13.0 48 +27 +29 жарко 1026.0 1024.2
15 17.06 штиль 0 30 км 1/1 600 м
[Cu med, cong]
+23.4 +14.5 57 +27 +27 душно 1024.7 1022.9
18 17.06 штиль 0 30 км 1/1 600 м
[Cu hum]
+20.6 +14.4 68 +23 +23 комфорт 1025.5 1023.7 +25.3
21 17.06 штиль 0 30 км ясно +19.6 +16.3 81 +22 +22 комфорт 1026.0 1024.2
00 18.06 штиль 0 30 км 4/4 600 м
[Cu Sc]
+18.4 +16.1 86 +19 +19 1024.9 1023.1
03 18.06 штиль 0 30 км 4/4 600 м
[Cu Sc]
+18.0 +15.8 87 +18 +18 1024.3 1022.5
06 18.06 штиль 0 30 км 5/5 600 м
[Cu med, cong]
+18.7 +16.5 87 +20 +21 1024.5 1022.7 +17.2
09 18.06 ЮЗ 2 30 км 6/6 600 м
[Cu Sc]
+24.0 +13.8 53 +26 +30 жарко 1027.2 1025.4
12 18.06 ЮЗ 2 30 км 8/8 600 м
[Cu Sc]
+26.0 +14.3 48 +28 +30 жарко 1025.6 1023.8
15 18.06 штиль 0 30 км 4/4 600 м
[Cu med, cong]
+22.6 +16.7 69 +27 +27 душно 1024.6 1022.8
18 18.06 ЮЗ 2 30 км 3/3 600 м
[Cu med, cong]
+21.2 +14.8 67 +24 +24 комфорт 1025.6 1023.8 +26.2
21 18.06 штиль 0 30 км 5/5 600 м
[Cu med, cong]
+20.1 +14.7 71 +22 +22 комфорт 1026.4 1024.6
00 19.06 штиль 0 30 км 4/4 600 м
[Cu med, cong]
+19.4 +15.3 77 +21 +21 комфорт 1026.5 1024.7
03 19.06 ЮЗ 2 30 км 3/3 600 м
[Cu med, cong]
+19.8 +14.9 73 +22 +22 комфорт 1025.6 1023.8
06 19.06 ЮЗ 2 30 км 8/8 600 м
[Cu Sc]
+20.4 +15.5 73 +24 +24 комфорт 1024.9 1023.1 +19.0
09 19.06 З 4 30 км 9/9 600 м
[Cu Sc]
+23.5 +16.7 66 +27 +28 душно 1026.7 1024.9
12 19.06 Ю 5 30 км 6/6 600 м
[Cu med, cong]
+24.6 +14.2 52 +27 +28 жарко 1026.2 1024.4
15 19.06 ЮЗ 4 30 км 8/8 600 м
[Cu Sc]
+22.6 +14.9 62 +26 +26 жарко 1025.2 1023.4

 

Местоположение метеостанции Иньямбане (Мозамбик): широта -23.87 долгота 35.38 высота над уровнем моря 15 м.

В архиве по умолчанию представлена погода в Иньямбане за последнюю неделю. Архивные данные за месяц целиком и за предыдущие месяцы, начиная с января 2011 года, Вы можете получить, выбрав интересующий диапазон дат из раскрывающегося списка и нажав кнопку "Ввод!".


*Определитесь, кто Вы:
робот инопланетянин человек

Внимание! Время в таблицах - всемирное. Для получения местного времени необходимо прибавить поправку, которая равна 2 ч.

Смотрите также архив погоды в соседних городах и на ближайших метеорологических станциях:

Погода в Панда (Мозамбик) (137 км)
Погода в Виланкуло (Мозамбик) (208 км)
Погода в Шаи-Шаи (Мозамбик) (220 км)
Погода в Вувулане (Свазиленд) (357 км)
Погода в Массанджена (Мозамбик) (357 км)
Погода в Мапуту (Мозамбик) (363 км)
Погода в Коматидрааи (Южная Африка) (396 км)
Погода в Скукузе (Южная Африка) (402 км)
Погода в Чангалане (Мозамбик) (419 км)
Погода в Пхалаборве (Южная Африка) (429 км)

Пояснения к столбцам:

Ветер - указаны скорость ветра в м/с - средняя за 10 мин, порывы в срок и между сроками (в фигурных скобках) и направление, откуда дует ветер: С - северный, СВ - северо-восточный, В - восточный, ЮВ - юго-восточный, Ю - южный, ЮЗ - юго-западный, З - западный, СЗ - северо-западный.
Видимость - горизонтальная дальность видимости в метрах или километрах. При видимости от 1 до 10 км при отсутствии осадков обычно наблюдается дымка, при ухудшении видимости до 1 км и менее - туман. В сухую погоду видимость может ухудшаться дымом, пылью или мглою.
Явления - указаны атмосферные явления, наблюдавшиеся в срок или в последний час перед сроком; фигурными скобками обозначены явления, наблюдавшиеся между сроками (за 1-3 часа до срока); квадратными скобками обозначены град или гололедные отложения с указанием их диаметра в мм.
Облачность - указаны через наклонную черту общая и нижняя облачность в баллах и высота нижней границы облаков в метрах; квадратными скобками обозначены формы облаков: Ci - перистые, Cs - перисто-слоистые, Cc - перисто-кучевые, Ac - высококучевые, As - высокослоистые, Sc - слоисто-кучевые, Ns - слоисто-дождевые, Cu - кучевые, Cb - кучево-дождевые. Подробнее классификацию облаков см. в Атласе облаков (PDF).
T - Температура воздуха - температура, измеренная на высоте 2 м над землей.
Td - Температура точки росы - температура, при понижении до которой содержащийся в воздухе водяной пар достигнет насыщения.
f - Относительная влажность воздуха - влажноcть воздуха, измеренная на высоте 2 м над землей.
Te - Эффективная температура - температура, которую ощущает одетый по сезону человек в тени. Характеристика душности погоды. При расчете учитывается влияние влажности воздуха и скорости ветра на теплоощущения человека.
Tes - Эффективная температура на солнце - температура, которую ощущает человек, с поправкой на солнечный нагрев. Характеристика знойности погоды. Зависит от высоты солнца над горизонтом, облачности и скорости ветра. Ночью, в пасмурную погоду, а также при ветре 12 м/с и более поправка равна нулю.
P - Атмосферное давление - приведенное к уровню моря атмосферное давление.
Po - Атмосферное давление - измеренное на уровне метеостанции атмосферное давление.
Tmin - Минимальная температура - минимум температуры воздуха на высоте 2 м над землей.
Tmax - Максимальная температура - максимум температуры воздуха на высоте 2 м над землей.
R - Количество осадков - Количество выпавших осадков за период времени, мм. При наведении курсора мыши на число - период времени, за который выпало указанное количество осадков.
R24 - Количество осадков - Количество выпавших осадков за 24 часа, мм.
S - Снежный покров - Высота снежного покрова, см. При наведении курсора мыши на число - состояние снежного покрова и степень покрытия местности в баллах.